Location: Brantley
(31.5822°N, 86.2569°W)
Time: 13:10:35
(UTC+00:00)

Courier 1B Rocket - Pass Details

Date: 25 February 2026
Orbit: 920 x 1201 km, 28.2° (Epoch: 17 March)

Event Time Altitude Azimuth Distance (km) Brightness Sun altitude
Rises 19:42:27 0° 218° (SW) 3,805 8.9 42.5°
Reaches altitude 10° 19:45:51 10° 204° (SSW) 2,800 8.5 42.0°
Maximum altitude 19:50:54 22° 155° (SSE) 1,980 7.2 41.4°
Drops below altitude 10° 19:55:44 10° 106° (ESE) 2,672 7.2 40.7°
Sets 19:58:53 0° 92° (E) 3,587 7.7 40.3°
